Regional Weather Roundup
Issued by NWS

Home | Current Version | Previous Version | Graphics & Text | Print | Product List | Glossary On
Versions: 1 2 3 4 5 6 7 8 9 10 11 12 13 14 15 16 17 18 19 20 21 22 23 24 25 26 27 28 29 30 31 32 33 34 35 36 37 38 39 40 41 42 43 44 45 46 47 48 49 50
000
ASUS43 KMPX 031910
RWRMN
WEATHER ROUNDUP FOR MINNESOTA
NATIONAL WEATHER SERVICE TWIN CITIES/CHANHASSEN MN
100 PM CST TUE MAR 03 2015


NOTE: "FAIR" INDICATES FEW OR NO CLOUDS BELOW 12,000 FEET WITH NO
SIGNIFICANT WEATHER AND/OR OBSTRUCTIONS TO VISIBILITY. N/A MEANS
CURRENT SKY AND/OR WEATHER CONDITIONS ARE NOT AVAILABLE.

MNZ060>063-068>070-032000-
   Twin Cities Metro

CITY           SKY/WX    TMP DP  RH WIND       PRES   REMARKS
TWIN CITIES    FLURRIES  29  21  72 NW13      29.68S WCI  19
ST PAUL        LGT SNOW  29  23  78 NW16      29.69S WCI  17
CRYSTAL        CLOUDY    29  21  72 NW14      29.68R HAZE    WCI  18
BLAINE         LGT SNOW  28  25  86 W17       29.67R WCI  16
EDEN PRAIRIE   LGT SNOW  29  20  69 NW12G23   29.68R WCI  19
$$
MNZ001>005-007-008-013>017-022>024-027-028-032000-
   Northwest Minnesota

CITY           SKY/WX    TMP DP  RH WIND       PRES   REMARKS
ROSEAU         MOSUNNY    9   0  66 NW18G28   29.78R WCI -10
THIEF RVR FALL CLOUDY     9   5  85 NW21      29.83R WCI -11
FOSSTON        PTSUNNY   10   0  61 NW21G29   29.82R WCI  -9
DETROIT LAKES  CLOUDY    12   9  85 NW21G31   29.82R HAZE    WCI  -6
PARK RAPIDS    MIX PCPN  15   5  64 NW25      29.73R WCI  -4
MAHNOMEN       CLOUDY    12   7  79 NW23      29.82R HAZE    WCI  -7
$$
MNZ006-009>011-018-025>026-032000-
   North Central Minnesota

CITY           SKY/WX    TMP DP  RH WIND       PRES   REMARKS
BAUDETTE       MOSUNNY   12  -2  53 NW21G31   29.70R WCI  -7
LONGVILLE      PTSUNNY   18   5  57 NW13G26   29.70R WCI   4
GRAND RAPIDS   CLOUDY    18  10  73 W20G30    29.64R WCI   1
ORR            PTSUNNY   16   7  67 NW17G28   29.58R WCI   0
COOK           LGT SNOW  19  12  73 W22G29    29.59R WCI   3
WALKER         CLOUDY    15   3  60 NW14G24   29.72R WCI   0
$$
MNZ012-019>021-037-032000-
   Northeast Minnesota

CITY           SKY/WX    TMP DP  RH WIND       PRES   REMARKS
DULUTH         LGT SNOW  25  18  74 NW15G25   29.54F BLWGSNOWWCI  13
HIBBING        LGT SNOW  22  13  68 NW21G31   29.59R WCI   6
$$
MNZ029>031-032-039>041-046>048-054>057-064-032000-
   West Central Minnesota

CITY           SKY/WX    TMP DP  RH WIND       PRES   REMARKS
WHEATON        LGT SNOW  10   7  85 NW26G35   29.92R WCI -11
ALEXANDRIA     LGT SNOW  16   7  67 NW25      29.78R WCI  -3
ELBOW LAKE     CLOUDY    13   8  79 NW28G35   29.84S HAZE    WCI  -8
WADENA         LGT SNOW  16   7  67 NW21G30   29.76S WCI  -2
WILLMAR        LGT SNOW  19  12  73 NW29G38   29.81R VSB 1   WCI   1
$$
MNZ033>034-036-042>043-049>051-058-059-032000-
   Central Minnesota

CITY           SKY/WX    TMP DP  RH WIND       PRES   REMARKS
ST CLOUD       MOSUNNY   24  14  65 NW26      29.71R WCI   8
BRAINERD       MOSUNNY   21   9  59 NW12G24   29.70R WCI   9
BUFFALO        LGT SNOW  29  21  74 NW17G24   29.71R WCI  16
MAPLE LAKE     CLOUDY    28  20  74 NW21G26   29.72R WCI  14
$$
MNZ037-044-045-052-053-032000-
   East Central Minnesota

CITY           SKY/WX    TMP DP  RH WIND       PRES   REMARKS
MORA           MOSUNNY   30  19  64 NW17G24   29.65S HAZE    WCI  18
CAMBRIDGE      PTSUNNY   28  19  69 W15       29.64S WCI  17
RUSH CITY      CLOUDY    28  21  74 W9        29.66S WCI  19
MOOSE LAKE     CLOUDY    28  19  69 NW9G20    29.59F WCI  20
CLOQUET        PTSUNNY   25  19  80 W13G22    29.57F HAZE    WCI  13
$$
MNZ071>073-080-081-089-090-097-098-032000-
   Southwest Minnesota

CITY           SKY/WX    TMP DP  RH WIND       PRES   REMARKS
MARSHALL       MOSUNNY   18   9  68 N29G37    29.86R WCI  -2
REDWOOD FALLS  LGT SNOW  21  12  68 NW22G38   29.81S WCI   5
WORTHINGTON    CLOUDY   N/A N/A N/A NW26G36   29.82R
$$
MNZ065>067-074>077-082>085-091>093-032000-
   South Central Minnesota

CITY           SKY/WX    TMP DP  RH WIND       PRES   REMARKS
MANKATO        CLOUDY    25  18  74 NW21G33   29.73R WCI  10
FAIRMONT       CLOUDY    25  18  74 NW24G37   29.74R WCI   9
OWATONNA       CLOUDY    28  23  80 NW24      29.69R HAZE    WCI  14
$$
MNZ078>079-086>088-094>096-032000-
   Southeast Minnesota

CITY           SKY/WX    TMP DP  RH WIND       PRES   REMARKS
WINONA         CLOUDY    32  27  80 NW9       29.66F WCI  24
AUSTIN         CLOUDY    30  25  80 NW15G22   29.66S WCI  19
PRESTON        CLOUDY    28  23  83 NW15G21   29.64F WCI  16
$$
ABBREVIATIONS USED IN REMARKS
   TC - TEMPERATURES IN CELSIUS
  WCI - WIND CHILL INDEX
   HX - HEAT INDEX
  VSB - VISIBILITY
$$



USA.gov is the U.S. government's official web portal to all federal, state and local government web resources and services.